Date,TemperatureHighF,TemperatureAvgF,TemperatureLowF,DewpointHighF,DewpointAvgF,DewpointLowF,HumidityHigh,HumidityAvg,HumidityLow,PressureMaxIn,PressureMinIn,WindSpeedMaxMPH,WindSpeedAvgMPH,GustSpeedMaxMPH,PrecipitationSumIn
2014-9-1,96.4,87.7,80.6,71.9,70.8,68.3,75,58,42,29.94,29.85,14,3,15,0.00
2014-9-2,95.2,80.8,75.5,76.1,72.7,69.7,92,78,45,29.97,29.88,16,2,18,0.00
2014-9-3,96.8,81.5,73.4,75.7,71.8,65.4,92,75,39,30.02,29.92,18,3,23,0.00
2014-9-14,80.3,74.4,66.3,67.8,66.3,63.0,89,76,65,30.25,30.14,11,1,0,0.00
2014-9-15,88.1,75.9,65.7,70.9,67.4,63.0,92,76,54,30.17,30.06,11,1,0,0.00
2014-9-16,91.3,79.4,72.6,75.1,72.4,69.5,91,80,55,30.11,29.96,14,2,19,0.00
2014-9-17,89.7,79.3,73.7,77.9,73.6,70.9,93,84,61,30.03,29.86,7,1,0,0.26
2014-9-18,72.8,72.0,71.7,69.9,69.7,69.2,93,92,90,29.92,29.87,9,3,14,2.70
2014-9-19,84.2,77.1,71.7,76.8,72.8,69.9,95,87,71,29.95,29.87,12,1,13,0.03
2014-9-20,86.1,77.0,72.8,76.5,72.5,70.7,93,87,66,30.01,29.91,10,1,15,0.16
2014-9-21,88.8,78.9,71.0,74.7,69.9,66.5,94,76,51,30.10,30.00,13,2,14,0.01
2014-9-22,91.0,82.6,66.7,70.7,68.2,63.4,90,64,46,30.16,30.04,13,2,13,0.00
2014-9-23,87.0,76.5,68.5,70.5,62.6,56.2,86,65,38,30.17,30.05,11,2,0,0.00
2014-9-24,84.0,72.2,59.8,60.4,57.8,53.0,86,63,38,30.18,30.09,10,1,0,0.00
2014-9-25,84.2,73.6,64.3,69.4,62.5,57.8,81,69,55,30.17,30.08,17,3,21,0.00
2014-9-26,83.7,71.9,65.8,70.9,65.9,62.5,94,82,58,30.14,30.01,11,1,0,0.60
2014-9-27,73.8,68.7,63.7,68.3,65.6,61.3,94,90,74,30.09,30.01,9,0,0,0.16
2014-9-28,83.9,72.3,61.4,68.7,63.7,59.4,94,76,53,30.08,29.98,12,1,12,0.01
2014-9-29,88.6,76.5,66.1,71.7,65.0,61.8,91,70,45,30.02,29.91,11,1,12,0.00
2014-9-30,92.0,77.2,65.0,72.4,66.9,61.7,89,72,47,29.92,29.78,8,0,0,0.00
2014-10-1,93.1,80.4,72.9,74.8,71.2,68.4,91,76,49,29.86,29.77,13,1,13,0.00
2014-10-2,93.7,82.9,76.0,75.5,73.5,63.7,90,75,52,29.93,29.81,18,2,18,0.00
2014-10-3,87.1,75.6,65.6,65.6,53.8,46.4,85,50,26,30.21,29.93,12,2,12,0.00
2014-10-4,83.0,69.5,60.2,59.2,52.7,49.5,83,57,33,30.25,30.04,14,1,14,0.00
2014-10-5,88.8,73.2,59.4,69.2,63.7,56.9,93,75,45,30.04,29.83,14,2,15,0.00
2014-10-6,91.3,78.5,71.0,72.6,69.5,65.5,92,76,45,29.95,29.84,16,1,16,0.00
2014-10-7,93.6,80.2,71.1,73.6,69.9,65.8,91,74,43,30.01,29.91,12,1,14,0.00
2014-10-8,92.8,80.1,72.9,72.0,69.8,66.0,91,73,46,30.06,29.94,14,2,14,0.00
2014-10-9,91.5,80.8,73.5,73.7,70.5,66.0,91,73,45,30.01,29.87,17,3,17,0.00
2014-10-10,91.3,79.9,73.9,73.2,71.4,69.2,90,77,50,29.96,29.86,17,4,17,0.00
2014-10-11,68.3,64.4,61.7,62.5,59.3,57.1,94,84,77,30.11,30.04,12,4,14,0.49
2014-10-12,78.8,67.6,60.0,71.9,63.0,56.5,90,85,73,30.06,29.77,12,1,13,0.00
2014-10-13,81.7,72.1,56.3,71.9,57.9,46.9,91,65,34,30.08,29.74,21,3,21,0.01
2014-10-14,83.0,65.2,50.0,48.3,43.4,37.7,80,50,21,30.23,30.08,15,1,15,0.00
2014-10-15,89.4,68.3,49.8,48.6,43.3,37.8,79,46,17,30.18,30.03,11,0,0,0.00
2014-10-16,88.2,70.0,54.2,56.1,48.9,43.4,77,50,26,30.05,29.92,12,1,14,0.00
2014-10-17,89.3,71.4,56.4,66.0,59.6,53.8,92,70,38,30.00,29.90,10,0,0,0.00
2014-10-18,85.3,74.6,65.7,70.7,65.1,61.6,90,74,52,30.08,29.97,9,1,0,0.00
2014-10-19,82.4,74.8,62.6,67.6,61.6,56.6,93,65,44,30.13,30.02,13,3,14,0.00
2014-10-20,81.3,71.6,62.6,65.9,61.9,59.5,91,73,51,30.11,30.00,9,2,0,0.00
2014-10-21,81.8,70.1,59.3,61.7,57.9,49.3,90,68,39,30.12,30.00,11,2,13,0.00
2014-10-22,83.9,71.2,59.9,62.1,56.5,50.8,77,61,44,30.15,30.05,13,1,13,0.00
2014-10-23,84.0,71.5,63.1,65.9,61.3,57.5,93,72,49,30.18,30.08,6,0,0,0.03
2014-10-24,88.1,71.9,58.4,62.9,59.3,54.9,89,67,41,30.22,30.10,7,0,0,0.00
2014-10-25,90.4,72.8,59.8,62.9,58.7,56.2,90,64,36,30.22,30.10,8,0,0,0.00
2014-10-26,86.5,70.9,58.2,63.5,58.2,53.6,93,68,37,30.12,29.94,10,0,0,0.00
2014-10-27,86.8,72.4,60.1,66.5,61.9,57.8,93,72,44,29.97,29.86,15,2,16,0.00
2014-10-28,86.3,72.7,63.3,68.5,64.4,60.4,92,77,50,30.09,29.94,6,0,0,0.00
2014-10-29,81.4,72.3,64.8,67.4,64.0,61.1,89,76,59,30.18,30.09,10,1,0,0.00
2014-10-30,85.3,70.9,61.6,65.8,62.6,58.6,92,77,51,30.18,30.06,8,0,0,0.00
2014-10-31,77.1,66.7,56.9,62.4,51.0,40.8,93,62,29,30.35,30.12,18,3,18,0.44
2014-11-1,68.7,57.2,47.0,49.8,43.4,39.8,85,61,39,30.43,30.30,13,2,13,0.00
2014-11-2,76.7,61.4,46.4,56.3,51.3,43.9,91,72,44,30.35,30.20,20,3,20,0.00
2014-11-3,74.6,68.1,61.2,65.3,60.8,54.5,88,78,67,30.20,30.10,20,3,20,0.00
2014-11-4,79.7,70.1,56.9,67.0,63.4,54.7,93,80,60,30.16,30.03,18,3,25,1.32
2014-11-5,57.6,56.3,54.5,55.9,54.6,52.8,95,94,93,30.25,30.09,15,5,15,1.91
2014-11-6,60.4,57.5,54.8,55.2,50.8,44.5,95,80,61,30.35,30.23,17,3,17,0.04
2014-11-7,69.7,59.8,53.6,50.2,45.0,37.5,84,60,33,30.32,30.09,7,1,0,0.00
2014-11-8,75.5,61.7,51.5,56.6,50.7,45.0,92,69,46,30.22,30.06,16,1,16,0.00
2014-11-9,76.5,58.4,45.6,47.2,44.2,40.7,87,63,30,30.23,29.99,6,0,0,0.00
2014-11-10,77.3,61.1,45.2,61.2,53.3,42.8,93,77,55,29.98,29.79,15,1,15,0.00
2014-11-11,62.6,53.1,43.3,59.6,43.2,32.0,94,70,51,30.23,29.82,18,3,21,0.00
2014-11-12,51.2,43.7,37.1,32.0,27.8,23.6,67,54,41,30.40,30.23,19,4,20,0.00
2014-11-13,42.9,39.1,36.6,17.7,14.9,12.8,39,37,34,30.55,30.49,9,2,0,0.00
2014-11-14,43.6,38.6,33.6,26.2,19.1,12.6,55,45,38,30.53,30.32,8,1,0,0.00
2014-11-15,46.4,42.7,37.7,44.8,38.0,25.7,94,84,54,30.32,30.06,8,0,0,0.05
2014-11-16,52.6,46.3,35.5,50.8,44.4,31.5,95,93,86,30.25,29.93,8,0,0,0.03
2014-11-17,52.6,39.4,29.8,31.4,24.7,18.2,92,59,30,30.52,30.26,17,1,17,0.00
2014-11-18,56.4,42.1,30.4,29.0,25.1,20.1,83,54,26,30.60,30.45,8,0,12,0.00
2014-11-19,68.8,50.7,35.2,49.4,41.1,25.3,89,71,48,30.45,30.23,15,1,15,0.00
2014-11-20,65.3,57.3,47.0,62.0,54.7,44.8,94,91,85,30.22,30.05,8,0,0,0.03
2014-11-21,73.2,65.8,63.2,68.4,63.5,61.1,94,92,84,30.13,30.01,18,2,18,0.87
2014-11-22,69.7,65.9,59.0,68.2,64.0,56.3,95,93,91,30.08,29.75,15,3,23,1.30
2014-12-2,49.9,47.6,43.5,43.4,41.0,36.1,88,78,68,30.39,30.26,5,0,0,0.00
2014-12-3,58.7,52.2,46.8,55.2,49.4,43.4,94,90,86,30.27,30.17,0,0,0,0.00
2014-12-4,65.3,61.6,58.2,63.5,59.6,55.2,95,93,90,30.22,30.07,11,1,12,0.08
2014-12-5,76.1,66.4,59.1,66.1,62.5,56.3,95,88,67,30.21,30.06,14,1,14,0.00
2014-12-6,67.9,59.6,53.6,57.7,54.1,49.4,92,82,67,30.39,30.21,12,2,16,0.00
2014-12-7,60.0,54.0,49.1,52.1,49.3,46.8,92,85,73,30.41,30.27,9,1,0,0.01
2014-12-8,69.4,55.8,49.2,53.6,48.6,45.6,92,78,56,30.41,30.29,12,1,12,0.00
2014-12-9,69.8,55.5,43.1,53.1,46.8,40.8,93,74,45,30.42,30.26,6,0,0,0.00
2014-12-10,68.0,59.2,52.1,58.1,51.9,42.9,90,77,58,30.30,30.16,10,1,0,0.01
2014-12-11,67.4,60.5,56.4,61.8,57.5,54.6,95,90,79,30.27,30.16,14,1,14,0.15
2014-12-12,69.9,62.8,57.5,61.6,58.2,55.1,94,85,72,30.32,30.21,12,1,13,0.01
2014-12-13,75.0,61.9,53.2,61.5,56.7,51.2,95,84,58,30.26,30.09,11,1,0,0.00
2014-12-14,72.8,65.5,58.7,63.9,61.2,56.4,95,86,71,30.09,29.88,18,2,18,0.00
2014-12-15,76.7,65.1,54.2,61.5,49.2,36.1,94,62,24,30.20,29.94,10,1,0,0.00
2014-12-16,63.9,55.9,49.0,39.2,37.1,34.1,59,50,38,30.37,30.20,12,3,13,0.00
2014-12-17,55.7,52.2,49.4,53.4,44.7,37.9,92,77,59,30.30,30.06,11,2,0,0.00
2014-12-18,64.4,56.9,52.6,60.1,54.4,50.9,95,92,85,30.17,30.06,12,2,13,0.50
2014-12-19,62.9,53.1,48.5,53.9,49.1,45.6,95,87,71,30.22,30.06,13,4,16,0.07
2014-12-20,56.1,50.3,46.8,47.7,45.5,43.7,92,84,72,30.30,30.18,11,3,15,0.00
2014-12-21,53.5,51.3,49.1,51.5,49.2,46.9,94,92,91,30.22,29.90,8,1,0,0.01
2014-12-22,71.6,59.0,53.6,57.6,54.3,51.5,94,85,60,29.90,29.65,12,1,15,0.00
2014-12-23,58.5,51.2,39.9,55.1,43.2,34.8,91,74,64,30.07,29.63,19,4,20,0.00
2014-12-24,59.9,45.7,35.3,36.3,33.7,30.0,85,65,39,30.22,30.07,20,2,22,0.00
2014-12-25,64.9,47.9,32.1,49.6,34.5,27.6,85,64,30,30.17,30.01,18,3,22,0.00
2014-12-26,72.8,60.8,53.1,62.2,56.0,49.0,93,85,66,30.04,29.89,14,1,17,0.00
2014-12-27,62.6,52.2,43.1,60.6,48.5,36.8,94,87,76,30.29,29.94,22,4,22,0.08
2014-12-28,49.2,39.2,33.2,38.5,34.1,31.0,94,82,60,30.36,30.18,20,2,22,0.19
2014-12-29,65.7,46.0,30.3,45.6,38.0,28.5,94,76,46,30.24,30.10,12,0,12,0.00
2014-12-30,45.1,42.6,39.5,43.0,40.3,34.7,95,92,81,30.49,30.23,18,4,18,0.01
2014-12-31,40.1,38.5,36.7,34.7,32.5,30.8,86,79,73,30.55,30.41,17,5,20,0.00
2015-1-1,38.7,36.7,34.6,37.4,34.7,31.3,95,93,78,30.41,30.16,11,2,0,0.15
2015-1-2,41.4,39.6,38.5,40.1,38.3,37.2,100,95,95,30.20,30.01,14,2,14,0.25